Location: Miles
(41.4492°N, 81.6087°W)
Time: 07:28:43
(UTC+00:00)

Vanguard 1 Rocket - Pass Details

Date: 15 September 2024
Orbit: 650 x 4218 km, 34.3° (Epoch: 05 October)

Event Time Altitude Azimuth Distance (km) Brightness Sun altitude
Rises 12:36:35 0° 272° (W) 6,808 11.2 15.8°
Reaches altitude 10° 12:40:29 10° 270° (W) 6,154 11.1 16.5°
Maximum altitude 13:02:19 67° 194° (SSW) 4,369 11.2 20.5°
Drops below altitude 10° 13:27:18 10° 119° (ESE) 6,867 13.7 25.0°
Sets 13:31:59 0° 117° (ESE) 7,586 13.4 25.8°
